Change the Weather History Date:

Friday, April 19, 2013

  Actual Average Record
Temperature  
Mean Temperature 72 °F -  
Max Temperature 77 °F 76 °F 88 °F (1968)
Min Temperature 66 °F 55 °F 39 °F (1983)
Cooling Degree Days 8    
Growing Degree Days 22 (Base 50)    
Moisture  
Dew Point 69 °F    
Average Humidity 94    
Maximum Humidity 100    
Minimum Humidity 74    
Precipitation  
Precipitation 0.01 in - - ()
Sea Level Pressure  
Sea Level Pressure 29.97 in    
Wind  
Wind Speed 7 mph (South)    
Max Wind Speed 17 mph    
Max Gust Speed 25 mph    
Visibility 8 miles    
Events Rain    
Averages and records for this station are not official NWS values.
T = Trace of Precipitation, MM = Missing Value Source: NWS Daily Summary

Daily Weather History Graph

Daily Weather History Graph

Search for Another Location

Airport or City:

Trip Planner

Search our weather history database for the weather conditions in past years. The results will help you decide how hot, cold, wet, or windy it might be!

Date:

Astronomy

Apr. 19, 2013 Rise Set
Actual Time 6:48 AM EDT 7:55 PM EDT
Civil Twilight 6:23 AM EDT 8:20 PM EDT
Nautical Twilight 5:53 AM EDT 8:50 PM EDT
Astronomical Twilight 5:22 AM EDT 9:22 PM EDT
Moon 1:59 PM EDT (4/19) 2:41 AM EDT (4/19)
Length of Visible Light 13h 57m
Length of Day
13h 06m
First Quarter, 61% of the Moon is Illuminated
Apr 19
First Quarter
Apr 25
Full
May 2
Last Quarter
May 9
New
May 18
First Quarter

Hourly Weather History & Observations

Time (EDT) Temp. Dew Point Humidity Pressure Visibility Wind Dir Wind Speed Gust Speed Precip Events Conditions
12:15 AM 69.8 °F 69.8 °F 100% 30.04 in 10.0 mi SSE 4.6 mph - 0.00 in   Clear
12:35 AM 69.8 °F 69.8 °F 100% 30.03 in 8.0 mi SSE 5.8 mph - 0.00 in   Clear
12:55 AM 69.8 °F 69.8 °F 100% 30.03 in 10.0 mi SSE 5.8 mph - 0.00 in   Clear
1:15 AM 69.8 °F 69.8 °F 100% 30.02 in 10.0 mi SSE 5.8 mph - 0.00 in   Clear
1:35 AM 69.8 °F 69.8 °F 100% 30.01 in 9.0 mi South 6.9 mph - 0.00 in   Clear
1:55 AM 69.8 °F 69.8 °F 100% 30.02 in 9.0 mi South 5.8 mph - 0.00 in   Clear
2:35 AM 69.8 °F 69.8 °F 100% 30.00 in 9.0 mi South 6.9 mph - 0.00 in   Clear
2:55 AM 69.8 °F 69.8 °F 100% 29.99 in 9.0 mi South 4.6 mph - 0.00 in   Clear
3:15 AM 69.8 °F 69.8 °F 100% 29.99 in 10.0 mi South 6.9 mph - 0.00 in   Clear
3:35 AM 69.8 °F 69.8 °F 100% 29.98 in 10.0 mi South 6.9 mph - 0.00 in   Clear
3:55 AM 69.8 °F 69.8 °F 100% 29.98 in 10.0 mi South 5.8 mph - 0.00 in   Partly Cloudy
4:15 AM 71.6 °F 71.6 °F 100% 29.97 in 10.0 mi SSE 6.9 mph - 0.00 in   Partly Cloudy
4:35 AM 69.8 °F 69.8 °F 100% 29.97 in 10.0 mi South 6.9 mph - 0.00 in   Clear
4:55 AM 71.6 °F 71.6 °F 100% 29.97 in 9.0 mi South 8.1 mph - 0.00 in   Clear
5:15 AM 71.6 °F 71.6 °F 100% 29.96 in 9.0 mi SSE 6.9 mph - 0.00 in   Clear
5:35 AM 71.6 °F 71.6 °F 100% 29.97 in 8.0 mi South 8.1 mph - 0.00 in   Clear
5:55 AM 69.8 °F 69.8 °F 100% 29.97 in 7.0 mi South 5.8 mph - 0.00 in   Clear
6:15 AM 69.8 °F 69.8 °F 100% 29.97 in 6.0 mi South 6.9 mph - 0.00 in   Partly Cloudy
6:35 AM 69.8 °F 69.8 °F 100% 29.97 in 7.0 mi South 6.9 mph - 0.00 in   Mostly Cloudy
6:55 AM 73.4 °F 69.8 °F 88% 29.98 in 7.0 mi South 8.1 mph 13.8 mph N/A   Mostly Cloudy
7:50 AM 71.6 °F 68.0 °F 88% 30.00 in 6.0 mi South 9.2 mph 16.1 mph N/A   Mostly Cloudy
8:50 AM 71.6 °F 68.0 °F 88% 30.00 in 6.0 mi SSW 8.1 mph 20.7 mph N/A   Mostly Cloudy
9:50 AM 71.6 °F 68.0 °F 88% 30.01 in 7.0 mi SSW 8.1 mph 16.1 mph N/A   Mostly Cloudy
10:50 AM 73.4 °F 68.0 °F 83% 29.99 in 8.0 mi SSW 6.9 mph - N/A   Mostly Cloudy
11:50 AM 73.4 °F 66.2 °F 78% 29.99 in 8.0 mi SSW 9.2 mph 16.1 mph N/A   Mostly Cloudy
12:52 PM 75.2 °F 68.0 °F 78% 29.96 in 10.0 mi South 13.8 mph - N/A   Scattered Clouds
1:56 PM 77.0 °F 68.0 °F 74% 29.94 in 10.0 mi South 16.1 mph - N/A   Partly Cloudy
2:59 PM 75.2 °F 68.0 °F 78% 29.91 in 10.0 mi South 9.2 mph - N/A   Scattered Clouds
3:54 PM 75.2 °F 68.0 °F 78% 29.90 in 10.0 mi SSE 11.5 mph - N/A   Clear
4:50 PM 73.4 °F 68.0 °F 83% 29.89 in 7.0 mi South 16.1 mph 24.2 mph N/A   Clear
5:50 PM 73.4 °F 68.0 °F 83% 29.90 in 5.0 mi South 17.3 mph 25.3 mph N/A   Clear
6:50 PM 73.4 °F 68.0 °F 83% 29.91 in 5.0 mi West 9.2 mph - N/A   Mostly Cloudy
7:50 PM 69.8 °F 66.2 °F 88% 29.93 in 1.0 mi SSW 8.1 mph - N/A Rain Rain
9:15 PM 69.8 °F 69.8 °F 100% 29.94 in 5.0 mi South 3.5 mph - 0.00 in   Overcast
9:35 PM 69.8 °F 69.8 °F 100% 29.94 in 6.0 mi South 5.8 mph - 0.00 in   Overcast
9:55 PM 69.8 °F 69.8 °F 100% 29.95 in 5.0 mi SSW 4.6 mph - 0.00 in   Overcast
10:15 PM 69.8 °F 69.8 °F 100% 29.95 in 6.0 mi SSW 4.6 mph - 0.00 in   Overcast
10:35 PM 69.8 °F 69.8 °F 100% 29.95 in 7.0 mi SSW 4.6 mph - 0.00 in   Overcast
10:55 PM 69.8 °F 69.8 °F 100% 29.96 in 8.0 mi WSW 11.5 mph - 0.00 in   Overcast
11:15 PM 69.8 °F 69.8 °F 100% 29.98 in 5.0 mi West 8.1 mph 24.2 mph 0.01 in   Drizzle
11:35 PM 68.0 °F 68.0 °F 100% 29.97 in 10.0 mi West 5.8 mph - 0.01 in   Overcast
11:55 PM 66.2 °F 66.2 °F 100% 29.99 in 10.0 mi West 12.7 mph 21.9 mph 0.01 in Rain Light Rain